EW9154 Weather Reports


Display with metric or nautical units.
time (UTC)temp
F
wind
direction
speed
MPH
gust
MPH
rain 1hr
in
rain 24hr
in
rain mn
in
humidity
%
barometer
mb
20260504100518 57 227 3.0 15.0 0.00 0.00 0.00 45 1010.0
20260504081612 56 205 2.0 11.0 0.00 0.00 0.00 46 1011.7
20260504081113 56 201 1.0 11.0 0.00 0.00 0.00 46 1011.9
20260504080816 56 202 2.0 13.0 0.00 0.00 0.00 46 1012.1
20260504070339 56 202 2.0 11.0 0.00 0.00 0.00 45 1013.0
20260504050527 58 226 1.0 8.0 0.00 0.00 0.00 41 1015.4
20260504045757 58 200 1.0 7.0 0.00 0.00 0.00 41 1015.4
20260504045241 58 200 0.0 7.0 0.00 0.00 0.00 42 1015.5
20260504044738 58 200 0.0 4.0 0.00 0.00 0.00 42 1015.6
20260504044238 58 205 0.0 6.0 0.00 0.00 0.00 40 1015.7
20260504043718 58 204 0.0 6.0 0.00 0.00 0.00 39 1015.8
20260504043217 58 215 0.0 0.0 0.00 0.00 0.00 39 1015.9
20260504042712 59 211 0.0 0.0 0.00 0.00 0.00 39 1016.0
20260504042424 59 211 0.0 0.0 0.00 0.00 0.00 39 1016.1
20260504041632 59 202 0.0 0.0 0.00 0.00 0.00 39 1016.1
20260504041136 59 202 0.0 0.0 0.00 0.00 0.00 39 1016.3
20260504040614 59 202 0.0 0.0 0.00 0.00 0.00 39 1016.3
20260504040114 59 202 0.0 0.0 0.00 0.00 0.00 39 1016.4
20260504035618 59 201 0.0 0.0 0.00 0.00 0.00 38 1016.6
20260504035055 59 209 0.0 0.0 0.00 0.00 0.00 38 1016.6
20260504034825 60 209 0.0 0.0 0.00 0.00 0.00 38 1016.8
20260504034034 60 209 0.0 0.0 0.00 0.00 0.00 37 1016.8
20260504033511 60 212 0.0 0.0 0.00 0.00 0.00 36 1016.9
20260504033010 60 251 0.0 0.0 0.00 0.00 0.00 36 1017.0
20260504032514 60 252 0.0 0.0 0.00 0.00 0.00 36 1017.1
20260504031948 61 252 0.0 0.0 0.00 0.00 0.00 36 1017.1
20260504031421 61 252 0.0 0.0 0.00 0.00 0.00 35 1017.1
20260504030911 61 252 0.0 0.0 0.00 0.00 0.00 36 1017.2
20260504030408 61 252 0.0 0.0 0.00 0.00 0.00 36 1017.2
20260504025907 61 252 0.0 0.0 0.00 0.00 0.00 36 1017.3
20260504025405 61 252 0.0 0.0 0.00 0.00 0.00 36 1017.3
20260504024902 61 252 0.0 0.0 0.00 0.00 0.00 36 1017.3
20260504024400 61 252 0.0 0.0 0.00 0.00 0.00 36 1017.4
20260504023855 61 252 0.0 0.0 0.00 0.00 0.00 35 1017.4
20260504023356 62 252 0.0 0.0 0.00 0.00 0.00 36 1017.4
20260504022827 62 252 0.0 0.0 0.00 0.00 0.00 35 1017.4
20260504022317 62 252 0.0 0.0 0.00 0.00 0.00 35 1017.6
20260504021816 62 252 0.0 0.0 0.00 0.00 0.00 35 1017.4
20260504021532 63 252 0.0 0.0 0.00 0.00 0.00 34 1017.4
20260504020758 63 252 0.0 0.0 0.00 0.00 0.00 33 1017.4
20260504020255 64 252 0.0 0.0 0.00 0.00 0.00 33 1017.6
20260504020029 64 252 0.0 0.0 0.00 0.00 0.00 32 1017.4
20260504015246 65 252 0.0 0.0 0.00 0.00 0.00 31 1017.6
20260504014744 65 252 0.0 0.0 0.00 0.00 0.00 31 1017.6
20260504014222 65 252 0.0 0.0 0.00 0.00 0.00 31 1017.6
20260504013723 65 252 0.0 0.0 0.00 0.00 0.00 30 1017.7
20260504013454 66 252 0.0 0.0 0.00 0.00 0.00 30 1017.7
20260504012726 66 252 0.0 0.0 0.00 0.00 0.00 30 1017.8
20260504012206 66 252 0.0 0.0 0.00 0.00 0.00 30 1017.8
20260504011701 66 252 0.0 0.0 0.00 0.00 0.00 28 1017.8
20260504011135 67 252 0.0 0.0 0.00 0.00 0.00 28 1017.9
20260504010608 67 252 0.0 0.0 0.00 0.00 0.00 28 1017.8
20260504010039 67 252 0.0 0.0 0.00 0.00 0.00 27 1017.8
20260504005517 67 252 0.0 0.0 0.00 0.00 0.00 27 1017.9
20260504005004 67 252 0.0 0.0 0.00 0.00 0.00 26 1017.9
20260504004730 68 252 0.0 0.0 0.00 0.00 0.00 26 1018.0
20260504003936 68 252 0.0 0.0 0.00 0.00 0.00 27 1017.9
20260504003411 68 251 0.0 0.0 0.00 0.00 0.00 26 1017.9
20260504003406 68 244 0.0 0.0 0.00 0.00 0.00 26 1018.0
20260504002340 68 244 0.0 3.0 0.00 0.00 0.00 26 1018.0
20260504001820 69 257 0.0 3.0 0.00 0.00 0.00 26 1018.0
20260504001318 69 251 0.0 3.0 0.00 0.00 0.00 27 1018.1
20260504000750 69 245 0.0 8.0 0.00 0.00 0.00 26 1018.1
20260504000246 69 256 0.0 8.0 0.00 0.00 0.00 25 1018.1
20260503235722 70 261 0.0 6.0 0.00 0.00 0.00 25 1018.0
20260503235204 70 261 0.0 6.0 0.00 0.00 0.00 24 1018.0
20260503234939 70 282 0.0 5.0 0.00 0.00 0.00 24 1018.0
20260503234139 71 236 0.0 1.0 0.00 0.00 0.00 25 1018.1
20260503233638 71 236 0.0 5.0 0.00 0.00 0.00 25 1018.0
20260503233614 71 229 0.0 5.0 0.00 0.00 0.00 25 1018.1
20260503232815 71 269 0.0 4.0 0.00 0.00 0.00 25 1018.2
20260503232041 72 268 0.0 4.0 0.00 0.00 0.00 23 1018.3
20260503231522 72 265 0.0 5.0 0.00 0.00 0.00 23 1018.4
20260503230955 73 265 0.0 5.0 0.00 0.00 0.00 23 1018.4
20260503230430 73 234 0.0 0.0 0.00 0.00 0.00 22 1018.4
20260503225927 74 238 0.0 0.0 0.00 0.00 0.00 22 1018.4
20260503225654 74 232 0.0 3.0 0.00 0.00 0.00 23 1018.5
20260503224856 75 244 0.0 3.0 0.00 0.00 0.00 22 1018.5
20260503224838 75 242 0.0 3.0 0.00 0.00 0.00 21 1018.5
20260503223811 75 284 0.0 3.0 0.00 0.00 0.00 21 1018.6
20260503223242 75 234 0.0 2.0 0.00 0.00 0.00 21 1018.8
20260503222738 75 236 0.0 4.0 0.00 0.00 0.00 22 1018.7
20260503222212 74 242 0.0 4.0 0.00 0.00 0.00 21 1018.6
20260503221645 75 249 0.0 1.0 0.00 0.00 0.00 20 1018.6
20260503221127 75 266 0.0 8.0 0.00 0.00 0.00 21 1018.7
20260503220558 76 242 1.0 8.0 0.00 0.00 0.00 20 1018.7
20260503220034 75 254 1.0 7.0 0.00 0.00 0.00 21 1018.7
20260503215512 76 244 0.0 4.0 0.00 0.00 0.00 20 1018.7
20260503215012 77 233 0.0 1.0 0.00 0.00 0.00 22 1018.8
20260503214741 77 247 0.0 2.0 0.00 0.00 0.00 21 1018.8
20260503214014 76 253 0.0 7.0 0.00 0.00 0.00 22 1018.8
20260503213448 76 254 0.0 7.0 0.00 0.00 0.00 23 1018.8
20260503212919 76 288 0.0 7.0 0.00 0.00 0.00 23 1018.9
20260503212418 76 200 0.0 8.0 0.00 0.00 0.00 24 1018.8
20260503211849 76 251 0.0 8.0 0.00 0.00 0.00 23 1019.0
20260503211349 76 238 1.0 7.0 0.00 0.00 0.00 23 1019.0
20260503210826 76 227 0.0 5.0 0.00 0.00 0.00 22 1019.0
20260503210300 76 265 0.0 6.0 0.00 0.00 0.00 23 1019.1
20260503205731 76 263 0.0 6.0 0.00 0.00 0.00 23 1019.1
20260503205230 76 350 0.0 3.0 0.00 0.00 0.00 23 1019.1
20260503204702 77 262 0.0 4.0 0.00 0.00 0.00 23 1019.2
20260503204158 76 69 0.0 4.0 0.00 0.00 0.00 24 1019.2
20260503203637 77 251 0.0 3.0 0.00 0.00 0.00 23 1019.2
20260503203111 76 221 0.0 3.0 0.00 0.00 0.00 24 1019.3
20260503202609 76 296 0.0 6.0 0.00 0.00 0.00 25 1019.4
20260503202107 76 197 0.0 6.0 0.00 0.00 0.00 23 1019.4
20260503201605 76 265 0.0 2.0 0.00 0.00 0.00 26 1019.4
20260503201333 75 263 0.0 2.0 0.00 0.00 0.00 23 1019.5
20260503200559 75 343 0.0 1.0 0.00 0.00 0.00 25 1019.6
20260503195541 75 249 0.0 2.0 0.00 0.00 0.00 24 1019.8
20260503195041 74 331 0.0 2.0 0.00 0.00 0.00 25 1019.8
20260503194543 74 0 0.0 6.0 0.00 0.00 0.00 24 1019.8
20260503194538 74 265 0.0 6.0 0.00 0.00 0.00 25 1020.0
20260503193809 74 355 0.0 2.0 0.00 0.00 0.00 26 1020.0
20260503193034 75 342 0.0 2.0 0.00 0.00 0.00 26 1020.0
20260503192518 75 310 0.0 6.0 0.00 0.00 0.00 23 1020.0
20260503192019 75 246 0.0 2.0 0.00 0.00 0.00 23 1020.0
20260503191455 75 278 0.0 9.0 0.00 0.00 0.00 25 1020.0
20260503190942 75 229 0.0 4.0 0.00 0.00 0.00 25 1020.0
20260503190936 74 252 0.0 9.0 0.00 0.00 0.00 25 1019.8
20260503190418 75 236 0.0 2.0 0.00 0.00 0.00 27 1020.1
20260503185418 75 300 0.0 2.0 0.00 0.00 0.00 27 1020.1
20260503184852 75 331 0.0 2.0 0.00 0.00 0.00 28 1020.0
20260503184328 75 267 0.0 10.0 0.00 0.00 0.00 29 1020.1
20260503183801 75 190 0.0 10.0 0.00 0.00 0.00 26 1020.2
20260503183237 75 228 0.0 0.0 0.00 0.00 0.00 28 1020.2
20260503182713 74 300 0.0 1.0 0.00 0.00 0.00 29 1020.2
20260503182430 74 299 0.0 1.0 0.00 0.00 0.00 26 1020.3
20260503181656 74 267 0.0 0.0 0.00 0.00 0.00 28 1020.2
20260503181159 74 304 0.0 1.0 0.00 0.00 0.00 28 1020.4
20260503180651 74 294 0.0 1.0 0.00 0.00 0.00 28 1020.4
20260503180150 74 0 0.0 2.0 0.00 0.00 0.00 30 1020.4
20260503175649 74 149 0.0 2.0 0.00 0.00 0.00 30 1020.4
20260503175147 73 306 0.0 2.0 0.00 0.00 0.00 31 1020.4
20260503174648 72 273 0.0 2.0 0.00 0.00 0.00 32 1020.5
20260503174126 73 11 0.0 1.0 0.00 0.00 0.00 31 1020.5
20260503173624 72 278 0.0 1.0 0.00 0.00 0.00 32 1020.5
20260503173122 72 267 0.0 4.0 0.00 0.00 0.00 34 1020.5
20260503172620 72 303 0.0 5.0 0.00 0.00 0.00 30 1020.5
20260503172117 71 286 0.0 5.0 0.00 0.00 0.00 33 1020.5
20260503171615 72 229 0.0 3.0 0.00 0.00 0.00 34 1020.6
20260503171114 72 261 0.0 3.0 0.00 0.00 0.00 33 1020.5
20260503170825 72 334 0.0 3.0 0.00 0.00 0.00 36 1020.6
20260503170546 71 344 0.0 2.0 0.00 0.00 0.00 38 1020.6
20260503150631 64 355 0.0 3.0 0.00 0.00 0.00 42 1020.1
20260503150104 64 330 0.0 0.0 0.00 0.00 0.00 42 1020.1
20260503131142 54 233 0.0 0.0 0.00 0.00 0.00 56 1019.2
20260503130618 53 232 0.0 0.0 0.00 0.00 0.00 57 1019.1
20260503110631 53 194 2.0 12.0 0.00 0.00 0.00 52 1017.7
20260503110107 53 194 2.0 12.0 0.00 0.00 0.00 51 1017.7